Location: Cheching
(60.0667°N, 164.2167°W)
Time: 21:41:35
(UTC+00:00)

NOAA 15 - Pass Details

Date: 28 January 2021
Orbit: 798 x 812 km, 98.7° (Epoch: 07 March)

Event Time Altitude Azimuth Distance (km) Brightness Sun altitude
Rises 18:09:26 0° 19° (NNE) 3,347 7.8 -8.4°
Reaches altitude 10° 18:11:57 10° 28° (NNE) 2,412 7.2 -8.1°
Maximum altitude 18:16:56 39° 96° (E) 1,218 6.3 -7.5°
Drops below altitude 10° 18:21:53 10° 165° (SSE) 2,400 7.7 -7.0°
Sets 18:24:23 0° 173° (S) 3,328 8.3 -6.7°
